Weather History for EHKV - January, 2014

Change the Weather History Date:

Friday, January 24, 2014

  Actual Average Record
Temperature  
Mean Temperature 43 °F -  
Max Temperature 46 °F - - ()
Min Temperature 40 °F - - ()
Degree Days  
Heating Degree Days 22    
Moisture  
Dew Point 38 °F    
Average Humidity 76    
Maximum Humidity 87    
Minimum Humidity 59    
Precipitation  
Precipitation 0.00 in - - ()
Sea Level Pressure  
Sea Level Pressure 29.93 in    
Wind  
Wind Speed 14 mph ()    
Max Wind Speed 23 mph    
Max Gust Speed 32 mph    
Visibility 8.2 miles    
Events Rain    
T = Trace of Precipitation, MM = Missing Value Source: Averaged Metar Reports

Daily Weather History Graph

Daily Weather History Graph

Search for Another Location

Airport or City:

Trip Planner

Search our weather history database for the weather conditions in past years. The results will help you decide how hot, cold, wet, or windy it might be!

Date:

Astronomy

Jan. 24, 2014 Rise Set
Actual Time 8:42 AM CET 5:13 PM CET
Civil Twilight 8:02 AM CET 5:52 PM CET
Nautical Twilight 7:20 AM CET 6:35 PM CET
Astronomical Twilight 6:39 AM CET 7:16 PM CET
Moon 1:38 AM CET (1/24) 11:34 AM CET (1/24)
Length of Visible Light 9h 49m
Length of Day
8h 31m
Waning Gibbous, 47% of the Moon is Illuminated
Jan 24
Waning Gibbous
Jan 30
New
Feb 6
First Quarter
Feb 15
Full
Feb 22
Last Quarter

Hourly Weather History & Observations

Time (CET) Temp. Windchill Dew Point Humidity Pressure Visibility Wind Dir Wind Speed Gust Speed Precip Events Conditions
12:00 AM 41 °F - 38 °F 85% 29.80 in 12 mi WNW 20.1 mph - - Rain Light Rain Showers
12:25 AM 41.0 °F 31.9 °F 37.4 °F 87% 29.80 in 6.2 mi NW 19.6 mph 32.2 mph N/A Rain Drizzle
12:55 AM 42.8 °F 33.5 °F 37.4 °F 81% 29.80 in 6.2 mi WNW 23.0 mph - N/A Rain Light Rain
1:00 AM 42 °F - 37 °F 75% 29.82 in 10 mi WNW 20.1 mph - - Rain Light Rain
1:25 AM 42.8 °F 33.5 °F 37.4 °F 81% 29.80 in 6.2 mi WNW 23.0 mph - N/A   Mostly Cloudy
1:55 AM 42.8 °F 33.8 °F 37.4 °F 81% 29.80 in 6.2 mi WNW 21.9 mph - N/A   Mostly Cloudy
2:00 AM 43 °F - 37 °F 73% 29.83 in 19 mi WNW 20.1 mph - - Rain Light Drizzle
2:25 AM 42.8 °F 33.8 °F 37.4 °F 81% 29.80 in 6.2 mi WNW 21.9 mph - N/A   Mostly Cloudy
2:55 AM 42.8 °F 33.8 °F 37.4 °F 81% 29.83 in 6.2 mi WNW 21.9 mph - N/A   Mostly Cloudy
3:00 AM 43 °F - 37 °F 72% 29.84 in 22 mi WNW 17.9 mph - - Rain Drizzle
3:25 AM 42.8 °F 34.0 °F 37.4 °F 81% 29.83 in 6.2 mi WNW 20.7 mph - N/A   Mostly Cloudy
3:55 AM 41.0 °F 31.1 °F 37.4 °F 87% 29.83 in - NNW 23.0 mph - N/A Rain Light Rain Showers
4:00 AM 42 °F - 38 °F 79% 29.85 in 2 mi NNW 17.9 mph - - Rain Rain Showers
4:25 AM 42.8 °F 34.3 °F 39.2 °F 87% 29.83 in 6.2 mi NNW 19.6 mph - N/A Rain Drizzle
4:55 AM 42.8 °F 34.5 °F 39.2 °F 87% 29.86 in 6.2 mi NNW 18.4 mph - N/A   Mostly Cloudy
5:00 AM 43 °F - 38 °F 77% 29.86 in 16 mi NNW 13.4 mph - - Rain Rain
5:25 AM 44.6 °F 37.2 °F 37.4 °F 76% 29.83 in 6.2 mi NNW 17.3 mph - N/A   Mostly Cloudy
5:55 AM 42.8 °F 33.8 °F 37.4 °F 81% 29.86 in 6.2 mi North 21.9 mph - N/A   Mostly Cloudy
6:00 AM 43 °F - 38 °F 75% 29.88 in 7 mi NNW 15.7 mph - - Rain Rain Showers
6:25 AM 44.6 °F 38.1 °F 39.2 °F 81% 29.86 in 6.2 mi NNW 13.8 mph - N/A   Mostly Cloudy
6:55 AM 44.6 °F 38.4 °F 39.2 °F 81% 29.89 in 6.2 mi NNW 12.7 mph - N/A   Mostly Cloudy
7:00 AM 44 °F - 38 °F 73% 29.90 in 14 mi NNW 11.2 mph - -   Unknown Precipitation
7:25 AM 44.6 °F 37.2 °F 35.6 °F 71% 29.89 in 6.2 mi NNW 17.3 mph - N/A   Mostly Cloudy
7:55 AM 44.6 °F 38.1 °F 37.4 °F 76% 29.89 in 6.2 mi NNW 13.8 mph - N/A   Mostly Cloudy
8:00 AM 45 °F - 36 °F 61% 29.91 in 18 mi NW 11.2 mph - -   Scattered Clouds
8:25 AM 44.6 °F 38.1 °F 35.6 °F 71% 29.92 in 6.2 mi NW 13.8 mph - N/A   Mostly Cloudy
8:55 AM 44.6 °F 38.8 °F 37.4 °F 76% 29.92 in 6.2 mi NW 11.5 mph - N/A   Mostly Cloudy
9:00 AM 44 °F - 36 °F 66% 29.93 in 17 mi NW 8.9 mph - -   Scattered Clouds
9:25 AM 44.6 °F 39.7 °F 37.4 °F 76% 29.92 in 6.2 mi Variable 9.2 mph - N/A   Mostly Cloudy
9:55 AM 44.6 °F 39.7 °F 37.4 °F 76% 29.95 in 6.2 mi Variable 9.2 mph - N/A   Mostly Cloudy
10:00 AM 45 °F - 37 °F 64% 29.95 in 16 mi West 6.7 mph - -   Overcast
10:25 AM 44.6 °F 39.7 °F 35.6 °F 71% 29.95 in 6.2 mi Variable 9.2 mph - N/A   Mostly Cloudy
10:55 AM 44.6 °F 39.7 °F 35.6 °F 71% 29.95 in 6.2 mi NW 9.2 mph - N/A   Mostly Cloudy
11:00 AM 45 °F - 36 °F 61% 29.97 in 19 mi NNW 6.7 mph - -   Mostly Cloudy
11:25 AM 44.6 °F 41.4 °F 35.6 °F 71% 29.95 in 6.2 mi North 5.8 mph - N/A   Mostly Cloudy
11:55 AM 44.6 °F 42.2 °F 35.6 °F 71% 29.95 in 6.2 mi NNW 4.6 mph - N/A   Mostly Cloudy
12:00 PM 45 °F - 35 °F 59% 29.98 in 19 mi North 4.5 mph - -   Overcast
12:25 PM 44.6 °F 42.2 °F 35.6 °F 71% 29.95 in 6.2 mi North 4.6 mph - N/A   Overcast
12:55 PM 44.6 °F 42.2 °F 39.2 °F 81% 29.98 in 6.2 mi East 4.6 mph - N/A   Overcast
1:00 PM 45 °F - 39 °F 74% 29.98 in 16 mi East 4.5 mph - -   Partly Cloudy
1:25 PM 44.6 °F 43.1 °F 39.2 °F 81% 29.95 in 6.2 mi East 3.5 mph - N/A   Light Drizzle
1:55 PM 44.6 °F - 39.2 °F 81% 29.98 in 6.2 mi Variable 1.2 mph - N/A   Mostly Cloudy
2:00 PM 45 °F - 39 °F 72% 29.99 in 16 mi East 2.2 mph - - Rain Drizzle
2:25 PM 44.6 °F - 37.4 °F 76% 29.98 in 6.2 mi Variable 2.3 mph - N/A   Overcast
2:55 PM 44.6 °F 42.2 °F 39.2 °F 81% 29.98 in 6.2 mi East 4.6 mph - N/A   Mostly Cloudy
3:00 PM 45 °F - 38 °F 68% 29.99 in 19 mi East 4.5 mph - -   Scattered Clouds
3:25 PM 44.6 °F 42.2 °F 37.4 °F 76% 29.98 in 6.2 mi SE 4.6 mph - N/A   Scattered Clouds
3:55 PM 44.6 °F 43.1 °F 37.4 °F 76% 29.98 in 6.2 mi SSE 3.5 mph - N/A   Mostly Cloudy
4:00 PM 45 °F - 37 °F 64% 30.00 in 22 mi SSE 2.2 mph - -   Overcast
4:25 PM 44.6 °F 42.2 °F 37.4 °F 76% 29.98 in 6.2 mi ESE 4.6 mph - N/A   Mostly Cloudy
4:55 PM 44.6 °F 40.7 °F 39.2 °F 81% 29.98 in 6.2 mi SE 6.9 mph - N/A   Mostly Cloudy
5:00 PM 45 °F - 38 °F 69% 30.00 in 19 mi SSE 6.7 mph - -   Overcast
5:25 PM 44.6 °F 40.2 °F 37.4 °F 76% 29.98 in 6.2 mi SSE 8.1 mph - N/A   Mostly Cloudy
5:55 PM 44.6 °F 40.7 °F 37.4 °F 76% 30.01 in 6.2 mi South 6.9 mph - N/A   Mostly Cloudy
6:00 PM 46 °F - 38 °F 65% 30.01 in 28 mi South 6.7 mph - -   Scattered Clouds
6:25 PM 46.4 °F 41.9 °F 37.4 °F 71% 30.01 in 6.2 mi South 9.2 mph - N/A   Mostly Cloudy
6:55 PM 44.6 °F 38.8 °F 37.4 °F 76% 30.01 in 6.2 mi SSE 11.5 mph - N/A   Mostly Cloudy
7:00 PM 46 °F - 38 °F 67% 30.01 in 28 mi SSE 11.2 mph - -   Partly Cloudy
7:25 PM 44.6 °F 38.4 °F 37.4 °F 76% 30.01 in 6.2 mi South 12.7 mph - N/A   Light Drizzle
7:55 PM 44.6 °F 37.4 °F 37.4 °F 76% 29.98 in 6.2 mi SSE 16.1 mph - N/A   Mostly Cloudy
8:00 PM 45 °F - 38 °F 69% 30.00 in 28 mi SSE 13.4 mph - - Rain Drizzle
8:25 PM 44.6 °F 36.9 °F 41.0 °F 87% 29.98 in 6.2 mi SSE 18.4 mph - N/A   Overcast
8:55 PM 44.6 °F 35.9 °F 39.2 °F 81% 29.98 in 5.0 mi SSE 23.0 mph - N/A   Mostly Cloudy
9:00 PM 44 °F - 40 °F 79% 30.01 in 6 mi SSE 17.9 mph - -   Mist
9:25 PM 44.6 °F 36.6 °F 41.0 °F 87% 30.01 in 5.0 mi SSE 19.6 mph - N/A   Mostly Cloudy
9:55 PM 44.6 °F 36.4 °F 41.0 °F 87% 30.01 in 5.6 mi SSE 20.7 mph - N/A   Mostly Cloudy
10:00 PM 44 °F - 41 °F 84% 30.01 in 5 mi SSE 17.9 mph - -   Mist
10:25 PM 44.6 °F 36.4 °F 41.0 °F 87% 30.01 in 5.0 mi SSE 20.7 mph - N/A   Mostly Cloudy
10:55 PM 44.6 °F 36.6 °F 41.0 °F 87% 30.01 in 5.6 mi SSE 19.6 mph - N/A   Mostly Cloudy
11:00 PM 45 °F - 40 °F 75% 30.01 in 6 mi SSE 17.9 mph - -   Partly Cloudy
11:25 PM 46.4 °F 38.3 °F 35.6 °F 66% 30.01 in 6.2 mi South 23.0 mph - N/A   Mostly Cloudy
11:55 PM 44.6 °F 35.9 °F 35.6 °F 71% 29.98 in 6.2 mi South 23.0 mph - N/A   Scattered Clouds